This is the latest recevied weather packets stored in our database for station/object WP4NYS-13. If no packets are shown the sender has not sent any weather packets the latest 10 day(s).
| Time | Temp. | Humidity | Pressure | Rain* | Wind** | Luminosity | Snow |
|---|---|---|---|---|---|---|---|
| 1777416212 | 29.44° C | 53% | 1017.8 hPa | 0 mm | - | - | - |
| 1777415911 | 29.44° C | 53% | 1018 hPa | 0 mm | - | - | - |
| 1777415608 | 29.44° C | 52% | 1018.4 hPa | 0 mm | - | - | - |
| 1777415303 | 29.44° C | 52% | 1018.5 hPa | 0 mm | - | - | - |
| 1777414998 | 29.44° C | 52% | 1018.1 hPa | 0 mm | - | - | - |
| 1777414697 | 29.44° C | 52% | 1018 hPa | 0 mm | - | - | - |
| 1777414394 | 29.44° C | 53% | 1018.3 hPa | 0 mm | - | - | - |
| 1777414093 | 30° C | 52% | 1018.3 hPa | 0 mm | - | - | - |
| 1777413789 | 30° C | 51% | 1018.1 hPa | 0 mm | - | - | - |
| 1777413489 | 30.56° C | 50% | 1017.9 hPa | 0 mm | - | - | - |
| 1777413186 | 30.56° C | 51% | 1018.1 hPa | 0 mm | - | - | - |
| 1777412881 | 30.56° C | 50% | 1017.8 hPa | 0 mm | - | - | - |
| 1777412575 | 31.11° C | 48% | 1018 hPa | 0 mm | - | - | - |
| 1777412272 | 31.11° C | 47% | 1018 hPa | 0 mm | - | - | - |
| 1777411969 | 31.67° C | 46% | 1017.9 hPa | 0 mm | - | - | - |
| 1777411667 | 32.22° C | 44% | 1018.1 hPa | 0 mm | - | - | - |
| 1777411363 | 32.22° C | 43% | 1018 hPa | 0 mm | - | - | - |
| 1777411062 | 32.22° C | 41% | 1017.9 hPa | 0 mm | - | - | - |
| 1777410757 | 32.78° C | 40% | 1018.5 hPa | 0 mm | - | - | - |
| 1777410456 | 31.67° C | 41% | 1018.4 hPa | 0 mm | - | - | - |
| 1777410156 | 31.67° C | 41% | 1018.4 hPa | 0 mm | - | - | - |
| 1777409850 | 31.11° C | 42% | 1018.5 hPa | 0 mm | - | - | - |
| 1777409547 | 32.22° C | 41% | 1018.7 hPa | 0 mm | - | - | - |
| 1777409242 | 32.78° C | 40% | 1018.5 hPa | 0 mm | - | - | - |
| 1777408938 | 32.78° C | 40% | 1018.6 hPa | 0 mm | - | - | - |
* Rain latest hour (hover to see other rain measurements)
** Current wind speed in m/s (hover to see current wind gust speed)